Weather WX

World > North America > United States > Ohio

New Knoxville, Ohio Regional Weather

Lat: 40.49N, Lon: 84.32W
Wx Zone: OHZ035
Warning FLW WEATHER ALERT - FLASH FLOOD WATCH (More Info. Click Here) Warning
Feedback

New Knoxville, OH Regional Weather

Expires:201906180100;;653180
ASUS41 KCLE 180012
RWRCLE
OHIO REGIONAL WEATHER ROUNDUP
NATIONAL WEATHER SERVICE WILMINGTON, OH
800 PM EDT MON JUN 17 2019

NOTE: "FAIR" INDICATES FEW OR NO CLOUDS BELOW 12,000 FEET WITH NO
SIGNIFICANT WEATHER AND/OR OBSTRUCTIONS TO VISIBILITY.


OHZ001>008-015>018-024>027-034-035-043-044-180100-
   NORTHWEST OHIO
  
CITY           SKY/WX    TMP DP  RH WIND       PRES   REMARKS
DEFIANCE       CLOUDY    71  64  78 N3        29.97R                  
FINDLAY        FAIR      71  65  81 E7        29.96R                  
TOLEDO EXPRESS CLOUDY    69  57  65 NE7       29.97S                  
TOLEDO EXEC    CLOUDY    67  60  78 E7        29.98S                  
LIMA           LGT RAIN  70  66  87 NE6       29.96R                  
$$
 

SKY/WX - Weather  TMP - Temperature  DP - Dew Point  RH - Relative Humidity
WIND - Wind Direction/Speed PRES - Barometric Pressure VSB - Visibility
WCI - Wind Chill Index E13G22 Wind - East Wind 13 mph/Gusts of 22 mph